[[{"header":{"parameterUnit":"m.s-1","parameterCategory":1,"la1":30.2992,"la2":30.254,"lo1":-89.0895,"lo2":-89.0443,"dy":0.0025,"dx":0.0025,"nx":19,"ny":19,"refTime":"2026-03-13T09:00:00:Z","depth":0,"parameterNumber":2,"parameterNumberName":"U-component_of_WINDS"},"data":[0,0,0,-2.8256,-2.8258,-2.8343,-2.8343,-2.8473,-2.8474,0,0,0,0,0,0,0,0,0,0,0,-2.8246,-2.8248,-2.8256,-2.8259,-2.8343,-2.8343,-2.8473,-2.8474,0,0,0,0,0,0,0,0,0,0,0,-2.8245,-2.8247,-2.8249,-2.8259,-2.8343,-2.8343,-2.8472,-2.8401,0,0,0,0,0,0,0,0,0,0,-2.8315,-2.832,-2.8247,-2.8249,-2.826,-2.8343,-2.8343,-2.8397,-2.8405,-2.8445,0,-2.8485,0,-2.8482,-2.8485,-2.8485,0,0,0,-2.8247,-2.8314,-2.8323,-2.8249,-2.826,-2.8343,-2.8302,-2.8401,-2.8411,-2.8456,-2.8487,-2.8491,-2.8484,-2.8486,-2.8486,-2.8756,-2.8758,0,0,-2.8243,-2.8269,-2.8317,-2.833,-2.832,-2.8299,-2.8304,-2.8407,-2.8441,-2.8487,-2.8494,-2.8487,-2.8487,-2.8488,-2.8754,-2.8757,0,0,0,-2.8237,-2.8266,-2.8273,-2.8325,-2.8339,-2.8302,-2.8308,-2.8437,-2.8437,-2.8495,-2.8488,-2.8488,-2.8489,-2.8752,-2.8755,-2.887,0,0,0,-2.8233,-2.8263,-2.8271,-2.8288,-2.8337,-2.8389,-2.8336,-2.843,-2.844,-2.8487,-2.8488,-2.8491,-2.875,-2.8754,-2.8863,-2.892,0,0,0,-2.8235,-2.8263,-2.828,-2.829,-2.8327,-2.8387,-2.8392,-2.8431,-2.8437,-2.8485,-2.8491,-2.8749,-2.8753,-2.8856,-2.8909,-2.8999,0,0,0,-2.8245,-2.8381,-2.8283,-2.8432,-2.8326,-2.8458,-2.8391,-2.8488,-2.8543,-2.8488,-2.8751,-2.8755,-2.8854,-2.8902,-2.8992,-2.908,-2.9119,0,0,-2.8432,-2.8405,-2.849,-2.8404,-2.856,-2.8443,-2.8615,-2.864,-2.8619,-2.8711,-2.8717,-2.8865,-2.8908,-2.8997,-2.9327,-2.9359,0,0,0,-2.8558,-2.862,-2.8655,-2.871,-2.8733,-2.8757,-2.8752,-2.8761,-2.8838,-2.8673,-2.8921,-2.8946,-2.8997,-2.9037,-2.9064,-2.9106,-2.8775,-2.8774,-2.8774,-2.886,-2.8828,-2.8967,-2.8944,-2.8998,-2.8992,-2.9032,-2.9042,-2.8993,-2.9053,-2.908,-2.9284,-2.9333,-2.9353,-2.9397,-2.9123,-2.9123,-2.9124,-2.9124,-2.9131,-2.9213,-2.9144,-2.9255,-2.9219,-2.9311,-2.931,-2.9272,-2.9352,-2.9261,-2.9304,-2.9209,-2.9388,-2.9425,-2.9133,-2.9131,-2.913,-2.9129,-2.9129,-2.9325,-2.9359,-2.9368,-2.9443,-2.9504,-2.9475,-2.9555,-2.9519,-2.9485,-2.9528,-2.9553,-2.9551,-2.9545,-2.9543,-2.9543,-2.9544,-2.9545,-2.9545,-2.9546,-2.9524,-2.953,-2.9603,-2.9638,-2.9668,-2.9702,-2.9697,-2.9725,-2.9747,-2.9714,-2.9714,-2.9659,-2.9412,-2.935,-2.9557,-2.9555,-2.9553,-2.9552,-2.9551,-2.9811,-2.974,-2.9852,-2.9882,-2.992,-2.9983,-2.9935,-2.9995,-3.0013,-3.0053,-2.9988,-2.9812,-2.9781,-2.976,-2.9709,-2.9995,-2.9995,-2.9995,-2.9995,-2.9976,-2.9956,-3.0062,-3.0113,-3.0157,-3.0126,-3.0252,-3.0249,-3.0234,-3.0243,-3.0196,-3.0125,-3.0105,-3.0086,-3.0058,-3.001,-3.0367,-3.0367,-3.0367,-3.015,-3.0134,-3.0249,-3.0234,-3.0261,-3.0285,-3.0402,-3.0461,-3.043,-3.0382,-3.0249,-3.0233,-3.0118,-3.0083,-3.0033,-2.9989,-2.99,0,0]},{"header":{"parameterUnit":"m.s-1","parameterCategory":1,"la1":30.2992,"la2":30.254,"lo1":-89.0895,"lo2":-89.0443,"dy":0.0025,"dx":0.0025,"nx":19,"ny":19,"refTime":"2026-03-13T09:00:00:Z","depth":0,"parameterNumber":3,"parameterNumberName":"V-component_of_WINDS"},"data":[0,0,0,-2.7509,-2.7511,-2.7607,-2.7608,-2.7724,-2.7725,0,0,0,0,0,0,0,0,0,0,0,-2.7479,-2.748,-2.7508,-2.7511,-2.7607,-2.7608,-2.7724,-2.7725,0,0,0,0,0,0,0,0,0,0,0,-2.7478,-2.7479,-2.748,-2.7511,-2.7607,-2.7608,-2.7724,-2.7653,0,0,0,0,0,0,0,0,0,0,-2.756,-2.7532,-2.7479,-2.748,-2.7512,-2.7607,-2.7608,-2.7649,-2.7657,-2.7678,0,-2.7699,0,-2.7714,-2.7733,-2.7733,0,0,0,-2.7511,-2.7526,-2.7553,-2.7481,-2.7513,-2.7607,-2.7564,-2.7654,-2.7663,-2.7689,-2.7701,-2.7706,-2.7716,-2.7734,-2.7734,-2.7859,-2.786,0,0,-2.7506,-2.7495,-2.7547,-2.7558,-2.7546,-2.7561,-2.7567,-2.7659,-2.7671,-2.7702,-2.7708,-2.7718,-2.7734,-2.7735,-2.7859,-2.7859,0,0,0,-2.749,-2.7491,-2.7517,-2.7554,-2.7572,-2.7564,-2.7571,-2.7667,-2.7676,-2.771,-2.772,-2.7735,-2.7736,-2.7858,-2.7859,-2.7876,0,0,0,-2.7487,-2.7482,-2.7514,-2.7508,-2.757,-2.7621,-2.7576,-2.767,-2.7681,-2.7719,-2.7735,-2.7738,-2.7857,-2.7858,-2.7874,-2.7885,0,0,0,-2.7473,-2.7481,-2.7494,-2.7508,-2.7549,-2.762,-2.7635,-2.7673,-2.7687,-2.7733,-2.7738,-2.7857,-2.7858,-2.7872,-2.7882,-2.7913,0,0,0,-2.7454,-2.7509,-2.7495,-2.7559,-2.7548,-2.7631,-2.7634,-2.7696,-2.7738,-2.7736,-2.7857,-2.7859,-2.7872,-2.7881,-2.7911,-2.7935,-2.7945,0,0,-2.7517,-2.7516,-2.7555,-2.7545,-2.7627,-2.7617,-2.7701,-2.7749,-2.7763,-2.7825,-2.7829,-2.7874,-2.7882,-2.7912,-2.8006,-2.8014,0,0,0,-2.7571,-2.7598,-2.7622,-2.7663,-2.7702,-2.7734,-2.7771,-2.7788,-2.7842,-2.7794,-2.7895,-2.79,-2.7918,-2.793,-2.7936,-2.7951,-2.7864,-2.7864,-2.7864,-2.7644,-2.7659,-2.7722,-2.7748,-2.7786,-2.7823,-2.7854,-2.7883,-2.7887,-2.791,-2.7928,-2.7984,-2.7998,-2.8003,-2.8018,-2.7944,-2.7944,-2.7944,-2.7944,-2.7736,-2.7775,-2.7778,-2.7841,-2.7855,-2.7907,-2.7942,-2.7942,-2.799,-2.7972,-2.7989,-2.7966,-2.8011,-2.8024,-2.7946,-2.7945,-2.7945,-2.7945,-2.7945,-2.7784,-2.7805,-2.7826,-2.7883,-2.7925,-2.7948,-2.7994,-2.8005,-2.8016,-2.8032,-2.805,-2.805,-2.8049,-2.804,-2.8041,-2.8041,-2.8041,-2.8041,-2.8041,-2.7825,-2.7847,-2.7886,-2.793,-2.7955,-2.799,-2.8024,-2.8049,-2.8078,-2.8082,-2.8083,-2.8082,-2.8014,-2.7995,-2.8044,-2.8044,-2.8043,-2.8043,-2.8043,-2.7909,-2.7892,-2.7951,-2.7976,-2.8026,-2.8065,-2.8079,-2.8127,-2.8148,-2.817,-2.8165,-2.8114,-2.8113,-2.8108,-2.8092,-2.8164,-2.8164,-2.8164,-2.8164,-2.7948,-2.7949,-2.8011,-2.805,-2.809,-2.8107,-2.8169,-2.8195,-2.8219,-2.8232,-2.8223,-2.8204,-2.8199,-2.8201,-2.8194,-2.8179,-2.8272,-2.8272,-2.8272,-2.8,-2.8005,-2.8057,-2.8082,-2.8121,-2.8153,-2.8211,-2.8253,-2.8276,-2.8276,-2.8242,-2.8237,-2.8207,-2.8196,-2.8195,-2.8184,-2.8158,0,0]}]]